Location: Champ de Mars
(48.8556°N, 2.2986°E)
Time: 22:10:22
(UTC+02:00)

ISS - Visible Passes

Search period start: 16 September 2019 00:00
Search period end: 26 September 2019 00:00
Orbit: 411 x 421 km, 51.6° (Epoch: 17 September)

Date Brightness Start Highest point End Pass type
(mag) Time Alt. Az. Time Alt. Az. Time Alt. Az.
19 Sep -1.3 22:11:37 10° SW 22:12:16 15° SW 22:12:16 15° SW visible
20 Sep -3.0 21:23:27 10° SSW 21:26:23 32° SSE 21:26:23 32° SSE visible
21 Sep -2.3 20:35:32 10° SSW 20:38:08 21° SE 20:40:18 12° E visible
21 Sep -2.3 22:11:13 10° WSW 22:13:12 33° WSW 22:13:12 33° WSW visible
22 Sep -3.9 21:22:47 10° WSW 21:26:04 66° SSE 21:26:56 44° E visible
22 Sep -0.5 22:59:38 10° W 22:59:50 11° W 22:59:50 11° W visible
23 Sep -3.4 20:34:27 10° SW 20:37:38 45° SSE 20:40:31 12° ENE visible
23 Sep -2.4 22:11:03 10° W 22:13:25 40° WNW 22:13:25 40° WNW visible
24 Sep -3.7 21:22:28 10° WSW 21:25:47 72° NNW 21:26:53 39° ENE visible
24 Sep -0.4 22:59:31 10° WNW 22:59:47 12° WNW 22:59:47 12° WNW visible
25 Sep -3.8 20:33:56 10° WSW 20:37:15 87° SSE 20:40:17 12° ENE visible
25 Sep -2.2 22:10:55 10° W 22:13:10 35° NW 22:13:10 35° NW visible
